Regional Weather Roundup
Issued by NWS

Home | Current Version | Previous Version | Graphics & Text | Print | Product List | Glossary On
Versions: 1 2 3 4 5 6 7 8 9 10 11 12 13 14 15 16 17 18 19 20 21 22 23 24 25 26 27 28 29 30 31 32 33 34 35 36 37 38 39 40 41 42 43 44 45 46 47 48 49 50
000
ASUS43 KDTX 180801
RWRMI
MICHIGAN HOURLY REGIONAL WEATHER ROUNDUP
NATIONAL WEATHER SERVICE DETROIT/PONTIAC MI
400 AM EDT SAT APR 18 2015

NOTE: "FAIR" INDICATES FEW OR NO CLOUDS BELOW 12,000 FEET WITH NO
SIGNIFICANT WEATHER AND/OR OBSTRUCTION TO VISIBILITY.

MIZ047>049-052>055-059>063-066>070-074>076-081>083-180900-
SOUTHEAST LOWER MICHIGAN

CITY           SKY/WX    TMP DP  RH WIND       PRES   REMARKS
ADRIAN         MOCLDY    50  44  80 W3        30.02S
ALMA           CLEAR     46  43  88 CALM      29.99S
ANN ARBOR      CLEAR     46  42  86 CALM      30.01R
BAD AXE        PTCLDY    45  41  86 CALM      29.96S
CARO           CLEAR     44  42  93 CALM      29.97S
DETROIT CITY   CLEAR     51  44  77 W3        30.00S
DETROIT        CLEAR     51  44  77 CALM      30.01R
FLINT          CLEAR     47  39  74 SW5       29.99S
GROSSE ILE     CLEAR     46  45  93 CALM      30.00R FOG
HILLSDALE      MOCLDY    56  41  57 CALM      30.02S
HOWELL         CLEAR     49  40  70 CALM      30.01R

CITY           SKY/WX    TMP DP  RH WIND       PRES   REMARKS
JACKSON        CLEAR     48  41  76 SW3       30.02R
LAMBERTVILLE   CLEAR     50  43  76 CALM      30.02R
LANSING        CLEAR     50  42  74 CALM      30.01R
LAPEER         FAIR      43  41  93 CALM      29.99R
MASON          CLEAR     47  41  79 CALM      30.01S
MONROE         CLEAR     46  45  93 CALM      30.00R
PONTIAC        CLEAR     49  42  77 CALM      29.99S
PORT HOPE        N/A     42  38  85 CALM      29.93F
PORT HURON     CLEAR     43  41  93 CALM      29.98S
TRI CITIES     CLEAR     51  42  71 SW7       29.98S
TROY           CLEAR     54  41  62 W5        30.01R
SAGINAW HB     CLEAR     46  41  81 SW5       29.97S
$$
MIZ043>046-050>051-056>058-064>065-071>073-077>080-180900-
SOUTHWEST LOWER MICHIGAN

CITY           SKY/WX    TMP DP  RH WIND       PRES   REMARKS
BATTLE CREEK   CLEAR     50  41  71 S3        30.02S
BENTON HARBOR  CLEAR     51  44  77 S3        30.01S
BIG RAPIDS     CLEAR     43  39  86 CALM      29.99S
COLDWATER      PTCLDY    47  42  81 CALM      30.03R
FREMONT        PTSUNNY   46  42  86 NW3       30.01R
HOLLAND        CLEAR     53  43  68 CALM      30.01S
GRAND RAPIDS   CLEAR     50  41  71 S3        30.00S
IONIA          FAIR      52  41  65 W3        29.99S
KALAMAZOO      CLEAR     53  47  79 S3        30.02S
LUDINGTON      CLEAR     51  42  71 W5        30.01R
MARSHALL       CLEAR     45  41  87 CALM      30.02R
MOUNT PLEASANT CLEAR     46  43  91 CALM      29.98R
MUSKEGON       PTCLDY    49  41  74 CALM      30.01R
SOUTH HAVEN    CLEAR     50  44  81 CALM      30.01S
$$
MIZ016>042-180900-
NORTHERN LOWER MICHIGAN

CITY           SKY/WX    TMP DP  RH WIND       PRES   REMARKS
ALPENA         CLEAR     40  35  83 SW3       29.95F
BEAVER ISLAND  CLEAR     39  32  75 W5        30.00R
BELLAIRE       CLEAR     37  35  91 CALM      29.98S
CADILLAC       CLEAR     49  37  64 W6        29.99R
CHARLEVOIX     CLEAR     40  34  78 CALM      29.99R
FRANKFORT      CLEAR     43  34  72 CALM      29.99S
GAYLORD        CLEAR     42  37  82 CALM      29.97S
GRAYLING       CLEAR     36  33  88 CALM      29.99S
HARBOR SPRINGS CLEAR     38  31  77 CALM      29.96R
MANISTEE       CLEAR     43  37  81 CALM      30.02R
OSCODA         CLEAR     40  36  88 W3        29.96R
PELLSTON       CLEAR     33  28  81 NW6       29.97R WCI  28
ROGERS CITY    CLEAR     46  39  75 SW9       29.93F
TRAVERSE CITY  CLEAR     41  36  82 CALM      29.97F
$$
MIZ007>008-015-180900-
EASTERN UPPER MICHIGAN

CITY           SKY/WX    TMP DP  RH WIND       PRES   REMARKS
KINROSS        CLEAR     43  30  61 W3        29.95R
MACKINAC ISLAN CLEAR     42  32  68 W9G16     29.96R
NEWBERRY       CLEAR     43  31  62 NW12G17   30.00R
S. S. MARIE    PTCLDY    43  29  57 W7        29.95R
$$
MIZ004>006-011>014-085-180900-
CENTRAL UPPER MICHIGAN

CITY           SKY/WX    TMP DP  RH WIND       PRES   REMARKS
MANISTIQUE     CLEAR     44  33  65 NW16G23   30.02R
ESCANABA       CLEAR     48  34  57 N13G20    30.05R
MENOMINEE      CLEAR     43  36  75 N9        30.03R
$$
MIZ001>003-009>011-084-180900-
WESTERN UPPER MICHIGAN

CITY           SKY/WX    TMP DP  RH WIND       PRES   REMARKS
IRON MOUNTAIN  CLEAR     48  32  53 N10       30.07R
HOUGHTON       CLEAR     39  32  76 N17G24    30.12R WCI  30
COPPER HARBOR    N/A     37  32  82 N8        30.14R WCI  31
IRONWOOD       CLEAR     45  32  61 NE14G20   30.12R
$$

ABBREVIATIONS USED IN REMARKS
   TC - TEMPERATURE IN CELSIUS
  WCI - WIND CHILL INDEX
   HX - HEAT INDEX
  VSB - VISIBILITY




USA.gov is the U.S. government's official web portal to all federal, state and local government web resources and services.